SCP
0 0 0 0 0 0 0 0 0 0 0 0 0 0 0 0 0 0 0 0 0 0 0 0 0 0 0 0 0 0 0 0 0 0 0 0 0 0 0 0 0 0 0 0 0 0 0 0 0 0 0 -0 -0 -0
0 0 0 0 0 0 0 0 0 0 0 0 0 0 0 0 0 0 0 0 0 0 0 0 -0 -0 -0 -0 -0 0 -0 -0 -0 0 0 0 0 0 0 0 0 0 0 0 0 0 -0 -0 0 0 0 0 -0 -0
0 0 0 0 0 0 0 0 0 0 0 0 0 0 0 0 0 0 0 0 0 0 0 0 0 0 0 0 0 -0 0 -0 -0 -0 0 0 0 0 0 0 0 0 0 0 0 0 0 0 0 0 0 -0 -0 -0
0 0 0 0 0 0 0 0 0 0 0 0 0 0 0 0 0 0 0 0 0 0 0 0 0 0 0 0 0 0 -0 -0 -0 0 0 0 0 0 0 0 0 0 0 0 0 0 0 0 -0 -0 -0 0 0 0
0 0 0 0 0 0 0 0 0 0 0 0 0 0 0 0 0 0 0 0 0 0 0 0 -0 0 0 0 0 0 0 0 0 0 0 0 0 0 0 0 0 0 0 0 0 0 0 0 -0 -0 -0 0 -0 0
0 0 0 0 0 0 0 0 0 0 0 0 0 0 0 0 0 0 0 0 0 0 0 0 0 0 0 0 0 0 0 0 0 0 0 0 0 0 0 0 0 -0 -0 0 0 0 0 -0 -0 -0 0 -0 -0 0
0 0 0 0 0 0 0 0 0 0 0 0 0 0 0 0 0 0 0 0 0 0 0 0 0 0 0 0 0 0 0 0 0 0 0 0 0 0 0 0 -0 0 0 0 0 0 -0 0 -0 0 0 -0 -0 -0
0 0 0 0 0 0 0 0 0 0 -0 0 0 0 0 0 0 0 0 0 0 0 0 0 0 0 0 0 0 0 0 0 0 0 0 0 0 0 0 -0 0 0 0 0 -0 -0 0 -0 -0 0 0 -0 -0 -0
0 0 0 0 0 0 0 0 0 0 0 0 0 0 0 0 0 0 0 0 0 0 0 0 0 0 0 0 0 0 0 0 0 -0 0 0 0 0 0 0 0 0 0 0 0 -0 -0 -0 -0 0 -0 -0 -0 -0
0 0 0 0 0 0 0 0 0 0 0 0 0 0 0 0 0 0 0 0 0 0 0 0 0 0 0 0 0 0 0 -0 -0 -0 0 0 0 0 0 0 0 0 0 0 -0 -0 0 0 0 -0 -0 -0 -0 -0
0 0 0 0 0 0 0 0 0 0 0 0 0 0 0 0 0 0 0 0 0 0 0 0 0 0 0 0 0 -0 0 -0 -0 -0 0 0 0 -0 -0 0 0 0 0 0 -0 0 0 0 -0 -0 -0 -0 -0 -0
0 0 0 0 0 0 0 0 0 0 0 0 0 0 0 0 0 0 0 0 0 0 0 0 0 0 0 0 0 0 -0 -0 -0 -0 -0 0 0 -0 -0 -0 -0 0 0 0 -0 -0 0 0 0 -0 -0 -0 -0 -0
0 0 0 0 0 0 0 0 0 -0 0 0 0 0 0 0 0 0 0 0 0 0 0 0 0 0 0 0 -0 0 0 0 -0 -0 0 0 0 0 -0 -0 -0 -0 -0 0 0 -0 0 0 0 0 -0 -0 -0 -0
0 0 0 0 0 0 0 0 -0 0 0 0 0 0 0 0 0 0 0 0 0 0 0 0 0 0 0 0 -0 0 0 0 0 0 0 -0 0 0 -0 -0 -0 -0 -0 0 0 -0 0 0 0 0 0 0 -0 -0
0 0 -0 0 0 0 0 0 0 0 0 0 0 0 0 0 0 0 0 0 0 0 0 0 0 0 0 0 -0 0 0 0 0 0 -0 -0 -0 0 0 -0 -0 -0 -0 -0 0 -0 0 0 0 0 0 0 0 -0
0 0 0 0 0 0 0 0 0 0 0 0 0 0 0 0 0 0 0 0 0 0 0 0 0 0 0 0 0 0 0 0 0 -0 -0 -0 -0 0 0 0 0 -0 -0 -0 -0 0 -0 0 0 0 0 0 0 -0
0 0 -0 0 -0 -0 0 0 0 0 0 0 0 0 0 0 0 0 0 0 0 0 0 0 0 0 0 0 0 0 0 0 -0 -0 -0 -0 -0 0 0 0 0 0 -0 -0 -0 0 -0 0 0 0 0 0 0 0
0 0 -0 -0 0 0 0 0 0 0 0 0 0 0 0 0 0 0 0 0 0 0 0 0 0 0 0 0 0 0 0 0 -0 -0 -0 -0 -0 0 0 0 0 0 0 0 0 0 -0 0 0 0 0 0 -0 -0
0 0 -0 -0 0 0 0 0 0 0 0 0 0 0 0 0 0 0 0 0 0 0 0 0 0 0 0 0 0 0 0 0 0 0 0 -0 -0 0 0 0 0 0 0 0 0 0 0 -0 -0 -0 0 0 -0 -0
-0 -0 -0 0 0 0 0 0 0 0 0 0 0 0 0 0 0 0 0 0 0 0 0 0 0 0 0 0 0 0 0 0 0 0 0 0 0 0 0 0 0 0 0 0 0 0 0 0 0 0 -0 -0 -0 -0
0 0 0 0 0 0 0 0 0 0 0 0 0 0 0 0 0 0 0 0 0 0 0 0 0 0 0 0 0 0 0 0 0 0 0 0 0 0 0 0 0 0 0 0 0 0 0 0 0 0 0 -0 -0 0
0 0 0 0 0 0 0 0 0 0 0 0 0 0 0 0 0 0 0 0 0 0 0 0 0 0 0 0 0 0 0 0 0 0 0 0 0 0 0 0 0 0 0 0 0 0 0 0 0 0 0 0 0 -0
0 0 0 0 0 0 0 0 0 0 0 0 0 0 0 0 0 0 0 0 0 0 0 0 0 0 0 0 0 0 0 0 0 0 0 0 0 0 0 0 0 0 0 0 0 0 0 0 0 0 0 0 0 0
0 0 0 0 0 0 0 0 0 0 0 0 0 0 0 0 0 0 0 0 0 0 0 0 0 0 0 0 0 0 0 0 0 0 0 0 0 0 0 0 0 0 0 0 0 0 0 0 0 0 0 0 0 0
0 0 0 0 0 0 0 0 0 0 0 0 0 0 0 0 0 0 0 0 0 0 0 0 0 0 0 0 0 0 0 0 0 0 0 0 0 0 0 0 0 0 0 0 0 0 0 0 0 0 0 0 0 0
0 0 0 0 0 0 0 0 0 0 0 0 0 0 0 0 0 0 0 0 0 0 0 0 0 0 0 0 0 0 0 0 0 0 0 0 0 0 0 0 0 0 0 0 0 0 0 0 0 0 0 0 0 0
0 0 0 0 0 0 0 0 0 0 0 0 0 0 0 0 0 0 0 0 0 0 0 0 0 0 0 0 0 0 0 0 0 0 0 0 0 0 0 0 0 0 0 0 0 0 0 0 0 0 0 0 0 0
0 0 0 0 0 0 0 0 0 0 0 0 0 0 0 0 0 0 0 0 0 0 0 0 0 0 0 0 0 0 0 0 0 0 0 0 0 0 0 0 0 0 -0 -0 -0 -0 0 0 0 0 0 0 0 0
0 0 0 0 0 0 0 0 0 0 0 0 0 0 0 0 0 0 0 0 0 0 0 0 0 0 0 0 0 0 0 0 0 0 0 0 0 0 0 0 0 0 0 -0 -0 -0 -0 -0 -0 -0 0 0 0 0
0 0 0 0 0 0 0 0 0 0 0 0 0 0 0 0 0 0 0 0 0 0 0 0 0 0 0 0 0 0 0 0 0 0 0 0 0 0 0 0 0 0 0 0 0 0 0 0 -0 -0 -0 -0 -0 0
0 0 0 0 0 0 0 0 0 0 0 0 0 0 0 0 0 0 0 0 0 0 0 0 0 0 0 0 0 0 0 0 0 0 0 0 0 0 0 0 0 0 0 0 0 0 0 0 0 0 0 0 0 0
0 0 0 0 0 0 0 0 0 0 0 0 0 0 0 0 0 0 0 0 0 0 0 0 0 0 0 0 0 0 0 0 0 0 0 0 0 0 0 0 0 0 0 0 0 0 0 0 0 0 0 0 0 0
0 0 0 0 0 0 0 0 0 0 0 0 0 0 0 0 0 0 0 0 0 0 0 0 0 0 0 0 0 0 0 0 0 0 0 0 0 0 0 0 0 0 0 0 0 0 0 0 0 0 0 0 0 0
Wind_Speed_500mb
63 61 58 60 69 72 64 59 40 36 34 29 29 24 22 28 24 22 14 12 5 11 19 11 10 12 7 7 7 11 10 7 11 3 4 2 3 5 7 6 1 7 5 8 9 8 12 12 32 11 28 66 68 69
60 64 65 63 57 55 48 54 46 36 30 26 23 24 19 24 26 21 8 14 13 13 13 18 19 23 25 19 13 6 8 4 9 6 8 8 4 6 7 5 5 6 4 8 10 10 41 44 39 53 51 61 70 74
55 54 61 62 57 61 59 52 52 43 34 30 22 27 19 18 22 20 11 13 10 12 16 9 8 8 8 10 17 10 3 4 5 8 9 4 6 2 5 6 10 10 14 5 12 10 23 49 57 52 59 69 76 77
52 52 54 65 62 65 60 57 56 56 44 33 24 30 23 20 17 18 14 11 9 6 8 5 12 8 8 7 14 22 16 9 11 13 5 5 6 5 6 12 14 7 10 9 20 32 43 37 55 64 68 74 79 79
51 50 49 56 68 68 65 59 54 56 50 39 28 33 27 18 14 18 18 15 15 6 10 10 16 10 11 11 16 22 27 21 15 10 7 5 8 8 9 8 3 8 8 6 9 51 47 49 58 66 71 80 86 76
47 48 47 47 70 66 66 59 56 53 41 35 33 32 29 18 8 12 5 10 11 12 6 6 6 8 9 12 16 22 23 20 14 8 8 9 10 5 4 5 11 43 50 54 18 53 56 48 58 64 75 86 77 71
44 49 48 46 62 67 63 54 53 47 36 36 33 32 30 19 10 12 6 8 11 9 4 9 7 9 2 3 8 8 17 12 13 8 8 7 5 7 2 4 48 54 61 63 45 37 42 48 61 73 72 84 72 69
48 48 48 46 53 71 60 49 49 44 30 34 38 29 29 15 15 21 23 17 9 7 6 5 6 8 2 4 5 11 11 13 14 8 8 6 8 7 3 42 52 54 58 37 50 45 45 53 63 71 75 79 73 68
50 48 46 43 49 63 57 45 43 35 27 42 32 26 13 6 12 10 14 10 14 9 5 6 5 1 5 6 8 11 13 8 15 8 6 1 2 8 16 39 55 59 47 57 57 45 47 55 63 69 72 76 70 66
50 45 44 40 40 51 53 35 31 24 40 32 22 10 9 11 18 21 10 10 11 11 11 9 5 6 9 9 6 5 8 6 4 3 14 4 5 6 22 45 48 52 43 42 48 56 60 58 62 69 68 71 70 69
48 44 42 37 35 51 45 27 27 44 33 23 14 11 10 29 15 8 8 9 12 8 13 10 10 11 2 8 6 7 4 2 4 3 3 4 4 26 41 51 56 46 40 43 43 48 49 53 59 64 68 74 80 73
43 43 41 37 39 52 36 26 43 44 21 18 18 11 17 9 7 8 8 8 10 7 15 9 5 6 2 1 7 8 5 2 3 4 4 5 8 35 42 48 61 56 47 48 47 49 50 49 52 59 62 70 81 74
44 42 42 39 43 46 28 39 43 39 25 36 9 8 8 12 12 11 14 8 8 13 15 14 8 6 8 5 10 5 6 1 6 3 4 5 21 36 41 46 56 60 51 47 49 49 47 46 50 54 54 60 81 74
42 43 44 39 47 44 42 47 46 39 32 12 14 11 11 11 11 11 9 9 12 14 16 10 8 6 3 7 4 6 3 4 4 4 3 10 32 35 39 41 50 55 60 54 50 46 45 42 45 49 50 50 73 80
44 44 39 38 48 53 50 52 44 46 11 11 10 10 14 14 6 12 16 20 16 14 10 9 8 8 4 2 2 5 4 4 2 2 5 21 28 31 37 41 43 51 61 56 52 42 41 42 42 47 50 49 53 78
43 35 49 49 58 57 58 52 42 30 8 5 11 9 11 16 16 19 17 19 15 11 6 6 4 5 3 2 3 3 4 2 3 4 15 21 25 29 34 37 39 40 47 55 45 38 38 37 41 40 44 53 54 54
60 44 63 62 65 67 61 45 32 11 9 9 11 20 15 16 24 19 17 14 14 10 7 4 7 5 7 3 5 3 3 3 3 9 12 16 23 27 30 33 36 37 39 48 46 37 37 38 34 39 48 49 51 50
60 56 71 77 84 62 49 17 12 15 14 19 9 18 19 14 22 19 14 12 8 8 10 3 6 8 5 5 5 7 5 3 3 8 10 16 20 22 25 29 32 34 35 40 46 38 36 40 36 39 42 46 45 53
67 69 81 81 75 38 12 14 12 10 17 8 15 15 17 17 12 18 15 11 9 9 11 7 4 4 5 3 14 13 6 1 4 7 7 13 20 24 23 26 28 33 34 36 43 46 39 32 33 34 34 39 41 46
58 68 78 76 66 11 9 9 14 7 11 12 13 23 17 18 21 18 15 13 13 10 5 5 1 6 10 18 15 11 6 4 5 7 10 15 20 24 24 25 28 32 33 35 34 38 43 41 37 35 33 36 38 41
75 80 75 70 25 11 6 12 10 10 10 13 22 26 13 22 21 17 13 13 8 4 6 5 13 17 20 20 15 12 8 8 8 8 9 14 20 21 25 26 26 28 30 34 37 39 37 41 43 38 31 27 30 27
70 77 62 34 8 6 3 10 9 14 11 12 26 20 16 17 17 14 15 10 5 6 9 17 21 24 22 19 15 11 6 6 6 5 10 14 19 22 25 27 28 30 31 33 36 38 38 38 37 37 38 26 27 26
81 62 25 9 8 6 8 19 11 13 8 19 24 13 9 12 13 19 8 6 7 9 19 23 25 22 21 19 14 9 8 8 7 6 10 11 15 19 21 23 26 29 32 33 34 36 38 41 38 36 37 33 23 26
52 12 8 8 7 8 16 12 11 13 9 11 12 10 11 11 18 11 6 11 13 25 28 30 29 27 22 16 11 7 5 7 7 6 10 10 13 17 20 21 23 24 29 29 33 36 38 42 43 39 36 35 33 25
11 7 10 6 8 10 11 13 12 10 9 11 15 8 9 14 9 11 7 17 29 33 33 32 28 25 21 17 13 7 7 6 7 5 8 10 12 14 17 19 21 24 31 31 36 38 39 41 43 44 41 37 32 31
6 9 12 12 10 9 11 13 11 11 10 12 9 14 12 8 9 8 6 24 32 40 40 38 33 27 21 18 16 11 6 6 6 5 6 8 12 15 18 20 21 23 32 30 34 36 38 40 40 43 43 41 36 30
7 6 9 6 9 14 10 9 11 7 12 11 11 10 9 9 11 6 6 13 26 33 34 31 29 25 23 21 16 12 9 7 7 5 5 7 8 15 17 19 22 26 28 28 32 34 38 41 41 41 41 40 36 34
5 7 12 16 12 7 5 9 11 13 9 11 19 12 14 2 5 6 5 14 27 35 34 29 25 24 24 21 17 13 9 7 8 6 5 7 6 12 19 18 20 24 26 26 31 30 35 41 40 41 41 42 39 38
6 10 16 13 9 8 10 7 6 6 4 13 14 6 7 7 8 10 16 29 37 37 35 33 31 29 26 21 17 12 9 7 4 3 2 3 8 13 21 22 23 23 24 25 31 35 34 37 38 40 40 38 37 40
10 16 5 13 9 6 6 4 10 11 11 12 15 16 14 13 14 17 25 30 29 28 27 27 28 25 23 19 15 10 8 8 7 5 4 7 13 18 20 22 23 23 25 26 28 28 33 31 29 30 35 37 40 43
19 10 6 6 5 6 13 17 19 17 11 14 17 19 21 17 16 21 21 22 25 26 27 27 25 21 19 15 12 9 5 4 5 7 8 9 13 17 21 23 23 22 24 26 27 28 31 30 29 34 36 39 42 43
10 9 6 5 8 17 24 7 8 8 7 8 9 12 18 12 9 9 16 20 23 23 23 23 22 19 16 14 11 12 12 7 2 5 10 12 15 19 20 20 19 19 21 23 23 25 28 30 30 32 35 38 41 43
6 10 6 5 10 9 8 10 7 8 9 7 8 10 11 8 8 7 23 25 20 22 23 22 20 19 17 15 12 8 6 1 9 13 18 21 22 20 16 17 16 16 17 17 19 22 25 28 30 31 33 35 38 41
Wind_Direction_500mb
255 257 256 253 261 265 264 254 240 265 275 284 291 302 324 323 337 331 305 317 307 275 283 250 244 250 254 251 293 10 257 192 272 290 307 258 295 303 294 304 232 236 228 223 224 247 265 19 330 295 304 301 303 301
263 258 254 252 256 263 261 256 241 245 266 259 284 295 312 324 329 329 317 301 304 268 259 275 259 249 245 248 298 285 339 307 353 319 3 321 313 317 337 293 169 279 249 296 299 294 313 312 299 306 302 300 303 304
268 262 253 251 248 253 259 263 247 241 255 250 274 281 286 306 309 314 295 285 296 292 291 259 253 254 279 239 222 261 142 346 349 353 344 308 275 175 287 296 313 335 0 247 314 266 303 304 305 308 311 308 309 308
270 264 255 248 243 249 250 262 248 247 246 250 265 272 277 283 299 303 274 273 239 280 280 174 241 291 244 240 244 239 249 295 290 292 249 284 268 252 292 300 297 344 331 293 267 296 313 294 311 317 319 315 313 317
274 264 256 252 241 245 251 257 252 245 243 242 252 269 276 282 298 299 284 251 230 266 310 283 283 237 211 234 240 234 238 245 273 274 246 240 253 284 276 297 295 2 347 309 287 294 289 292 320 329 320 328 320 316
274 267 258 255 243 244 249 251 254 253 235 236 246 264 277 264 291 291 268 240 227 220 274 276 285 228 221 262 244 231 222 219 224 242 265 281 287 198 274 269 45 349 334 322 282 292 296 326 327 330 330 326 323 320
279 270 259 249 245 245 249 247 249 251 234 237 246 259 277 255 249 215 248 193 207 193 243 282 240 182 251 219 197 178 189 208 222 245 242 253 272 208 288 326 340 335 327 318 327 315 332 335 341 336 336 329 328 321
282 278 257 246 247 240 249 249 247 248 232 236 248 258 278 249 262 257 242 227 213 221 230 272 271 213 33 271 241 191 188 207 218 238 221 231 163 203 223 351 332 330 330 326 329 326 333 335 336 339 339 338 333 332
279 275 254 244 248 245 244 248 243 248 221 238 251 263 248 205 223 205 176 187 215 208 270 233 273 352 329 275 273 224 201 207 193 218 151 303 128 48 321 326 330 332 325 307 323 335 334 335 338 341 342 340 339 333
271 269 250 237 242 244 237 239 237 208 222 226 247 203 201 193 164 143 150 172 206 217 225 248 259 289 317 327 258 263 201 240 226 156 127 179 93 3 347 338 337 333 333 331 336 333 338 340 341 343 343 341 341 342
262 258 242 229 234 235 224 221 193 209 216 218 192 188 172 154 145 185 211 216 187 220 210 228 248 305 6 299 344 347 288 219 262 92 218 108 80 355 344 340 352 351 347 342 339 334 339 340 342 342 344 346 349 349
256 249 229 215 226 227 211 201 197 206 196 177 134 131 149 153 195 221 209 182 216 228 174 198 194 226 159 276 252 216 286 300 313 271 191 116 19 349 346 343 353 356 352 348 350 344 344 347 348 348 350 348 355 357
246 233 215 203 219 212 189 186 194 204 188 128 140 161 192 180 216 218 193 198 198 179 174 186 177 166 164 196 260 270 257 8 288 260 76 64 352 350 346 342 347 360 357 359 354 358 356 353 356 354 352 351 6 4
240 221 200 198 211 188 178 187 186 194 143 167 174 189 219 186 227 206 218 147 121 145 160 189 151 179 138 210 315 258 67 244 251 173 85 26 349 343 343 340 344 349 360 358 351 351 355 358 356 359 3 360 2 13
220 199 183 198 196 179 185 180 191 180 142 184 198 213 215 237 217 169 134 128 133 144 157 154 151 198 122 185 251 263 219 196 322 99 358 336 336 339 342 342 342 343 353 356 355 351 356 355 360 4 5 7 5 12
185 172 197 189 177 178 175 183 174 158 164 217 226 248 226 203 156 163 156 137 149 153 157 197 151 163 150 180 240 166 246 221 134 344 324 327 334 339 340 340 340 340 344 356 352 354 353 356 355 3 6 12 9 8
181 172 185 174 172 175 181 165 150 148 197 223 231 228 236 204 174 164 167 147 163 193 203 169 191 160 128 145 194 213 191 126 341 313 325 330 331 336 339 339 342 343 347 353 358 358 353 354 356 3 11 10 10 12
178 178 170 169 172 172 159 143 133 175 221 226 226 204 193 185 164 153 148 154 172 192 191 158 130 194 197 180 166 158 160 172 282 330 331 334 336 336 341 340 342 345 345 352 3 7 5 6 3 2 3 5 7 12
176 172 173 176 172 139 128 160 163 208 211 197 211 183 170 151 132 146 142 143 148 156 144 175 207 189 144 126 121 148 151 144 349 339 323 334 345 344 341 346 346 347 348 349 359 9 14 9 4 1 360 5 6 9
172 174 172 171 163 116 113 141 181 197 188 188 179 174 165 153 144 138 134 143 151 156 176 206 65 108 128 132 141 137 122 60 10 356 345 342 349 350 349 350 351 349 350 348 355 4 11 19 17 14 19 8 3 8
158 164 170 167 133 110 150 147 170 185 162 179 162 160 142 150 155 161 158 158 183 204 161 163 133 125 126 126 123 120 92 73 42 28 357 352 359 358 359 2 2 1 1 358 358 357 2 360 3 7 11 3 360 4
149 167 158 147 90 103 165 168 162 152 164 155 160 165 159 173 168 170 159 187 191 169 169 159 151 144 137 133 123 114 97 70 72 34 23 13 5 6 9 8 5 9 9 4 2 357 354 354 355 1 1 9 5 2
156 152 130 114 129 130 148 144 158 168 162 167 164 156 157 165 162 155 191 178 169 171 156 155 152 147 145 144 131 106 82 85 97 64 35 18 10 8 10 10 8 6 8 6 3 358 355 358 357 357 357 10 17 2
139 116 125 138 139 144 156 171 170 150 130 175 183 164 157 143 157 199 188 177 166 159 159 158 156 152 153 153 146 130 96 92 110 69 37 27 15 8 9 7 8 7 3 3 2 2 359 358 2 359 357 352 5 15
125 147 139 161 177 152 161 150 172 179 171 172 175 147 153 160 184 192 203 172 173 172 170 167 167 170 168 162 156 139 97 102 125 111 44 32 21 14 11 12 10 5 3 6 0 360 1 359 1 357 357 356 355 2
118 167 181 171 160 177 158 157 160 175 178 171 174 134 159 164 179 211 179 180 179 177 176 174 172 171 169 169 159 149 117 99 112 101 50 37 29 18 7 4 3 356 0 1 353 355 357 358 357 357 356 356 357 351
136 171 175 171 151 141 101 118 148 170 189 182 155 158 169 186 209 110 121 149 167 169 166 164 166 166 164 157 149 134 117 86 100 125 78 53 42 22 12 1 355 347 358 356 355 354 351 352 353 353 352 354 355 350
94 150 154 153 127 132 151 176 170 180 181 151 156 180 181 206 93 83 113 147 153 150 151 152 155 156 153 149 141 126 106 84 61 104 68 33 12 10 2 355 346 353 4 349 357 355 353 354 352 352 352 350 349 350
118 129 135 142 119 182 205 199 169 90 73 187 178 121 105 79 80 93 127 138 145 147 144 143 143 146 141 136 130 116 95 87 103 97 47 348 332 326 350 351 349 349 349 349 346 350 353 352 355 355 354 349 346 345
143 159 139 170 178 182 119 64 106 99 77 106 112 109 94 91 75 115 134 141 146 149 151 151 150 150 150 148 142 119 88 74 71 73 30 356 346 339 345 347 346 346 346 346 346 346 344 357 349 349 351 351 349 350
150 157 149 144 152 105 129 126 112 109 98 75 89 116 124 124 112 104 127 146 148 145 146 147 149 152 152 154 158 156 139 86 41 7 360 356 344 340 341 343 344 344 343 345 346 347 347 351 350 348 350 350 349 348
150 171 141 143 117 141 129 94 86 80 82 109 102 117 124 108 104 133 126 141 151 150 151 150 152 150 151 150 144 155 160 136 84 359 335 335 332 332 337 338 342 343 344 346 347 345 344 346 348 349 349 349 349 348
106 145 142 99 138 146 122 96 82 87 78 82 84 87 79 89 98 143 157 147 152 153 148 146 142 137 135 134 132 136 129 266 320 328 335 334 335 339 343 338 346 348 350 352 351 348 349 349 350 352 354 355 354 353
Wind_Speed_850mb
63 61 58 60 69 72 64 59 40 36 34 29 29 24 22 28 24 22 14 12 5 11 19 11 10 12 7 7 7 11 10 7 11 3 4 2 3 5 7 6 1 7 5 8 9 8 12 12 32 11 28 66 68 69
60 64 65 63 57 55 48 54 46 36 30 26 23 24 19 24 26 21 8 14 13 13 13 18 19 23 25 19 13 6 8 4 9 6 8 8 4 6 7 5 5 6 4 8 10 10 41 44 39 53 51 61 70 74
55 54 61 62 57 61 59 52 52 43 34 30 22 27 19 18 22 20 11 13 10 12 16 9 8 8 8 10 17 10 3 4 5 8 9 4 6 2 5 6 10 10 14 5 12 10 23 49 57 52 59 69 76 77
52 52 54 65 62 65 60 57 56 56 44 33 24 30 23 20 17 18 14 11 9 6 8 5 12 8 8 7 14 22 16 9 11 13 5 5 6 5 6 12 14 7 10 9 20 32 43 37 55 64 68 74 79 79
51 50 49 56 68 68 65 59 54 56 50 39 28 33 27 18 14 18 18 15 15 6 10 10 16 10 11 11 16 22 27 21 15 10 7 5 8 8 9 8 3 8 8 6 9 51 47 49 58 66 71 80 86 76
47 48 47 47 70 66 66 59 56 53 41 35 33 32 29 18 8 12 5 10 11 12 6 6 6 8 9 12 16 22 23 20 14 8 8 9 10 5 4 5 11 43 50 54 18 53 56 48 58 64 75 86 77 71
44 49 48 46 62 67 63 54 53 47 36 36 33 32 30 19 10 12 6 8 11 9 4 9 7 9 2 3 8 8 17 12 13 8 8 7 5 7 2 4 48 54 61 63 45 37 42 48 61 73 72 84 72 69
48 48 48 46 53 71 60 49 49 44 30 34 38 29 29 15 15 21 23 17 9 7 6 5 6 8 2 4 5 11 11 13 14 8 8 6 8 7 3 42 52 54 58 37 50 45 45 53 63 71 75 79 73 68
50 48 46 43 49 63 57 45 43 35 27 42 32 26 13 6 12 10 14 10 14 9 5 6 5 1 5 6 8 11 13 8 15 8 6 1 2 8 16 39 55 59 47 57 57 45 47 55 63 69 72 76 70 66
50 45 44 40 40 51 53 35 31 24 40 32 22 10 9 11 18 21 10 10 11 11 11 9 5 6 9 9 6 5 8 6 4 3 14 4 5 6 22 45 48 52 43 42 48 56 60 58 62 69 68 71 70 69
48 44 42 37 35 51 45 27 27 44 33 23 14 11 10 29 15 8 8 9 12 8 13 10 10 11 2 8 6 7 4 2 4 3 3 4 4 26 41 51 56 46 40 43 43 48 49 53 59 64 68 74 80 73
43 43 41 37 39 52 36 26 43 44 21 18 18 11 17 9 7 8 8 8 10 7 15 9 5 6 2 1 7 8 5 2 3 4 4 5 8 35 42 48 61 56 47 48 47 49 50 49 52 59 62 70 81 74
44 42 42 39 43 46 28 39 43 39 25 36 9 8 8 12 12 11 14 8 8 13 15 14 8 6 8 5 10 5 6 1 6 3 4 5 21 36 41 46 56 60 51 47 49 49 47 46 50 54 54 60 81 74
42 43 44 39 47 44 42 47 46 39 32 12 14 11 11 11 11 11 9 9 12 14 16 10 8 6 3 7 4 6 3 4 4 4 3 10 32 35 39 41 50 55 60 54 50 46 45 42 45 49 50 50 73 80
44 44 39 38 48 53 50 52 44 46 11 11 10 10 14 14 6 12 16 20 16 14 10 9 8 8 4 2 2 5 4 4 2 2 5 21 28 31 37 41 43 51 61 56 52 42 41 42 42 47 50 49 53 78
43 35 49 49 58 57 58 52 42 30 8 5 11 9 11 16 16 19 17 19 15 11 6 6 4 5 3 2 3 3 4 2 3 4 15 21 25 29 34 37 39 40 47 55 45 38 38 37 41 40 44 53 54 54
60 44 63 62 65 67 61 45 32 11 9 9 11 20 15 16 24 19 17 14 14 10 7 4 7 5 7 3 5 3 3 3 3 9 12 16 23 27 30 33 36 37 39 48 46 37 37 38 34 39 48 49 51 50
60 56 71 77 84 62 49 17 12 15 14 19 9 18 19 14 22 19 14 12 8 8 10 3 6 8 5 5 5 7 5 3 3 8 10 16 20 22 25 29 32 34 35 40 46 38 36 40 36 39 42 46 45 53
67 69 81 81 75 38 12 14 12 10 17 8 15 15 17 17 12 18 15 11 9 9 11 7 4 4 5 3 14 13 6 1 4 7 7 13 20 24 23 26 28 33 34 36 43 46 39 32 33 34 34 39 41 46
58 68 78 76 66 11 9 9 14 7 11 12 13 23 17 18 21 18 15 13 13 10 5 5 1 6 10 18 15 11 6 4 5 7 10 15 20 24 24 25 28 32 33 35 34 38 43 41 37 35 33 36 38 41
75 80 75 70 25 11 6 12 10 10 10 13 22 26 13 22 21 17 13 13 8 4 6 5 13 17 20 20 15 12 8 8 8 8 9 14 20 21 25 26 26 28 30 34 37 39 37 41 43 38 31 27 30 27
70 77 62 34 8 6 3 10 9 14 11 12 26 20 16 17 17 14 15 10 5 6 9 17 21 24 22 19 15 11 6 6 6 5 10 14 19 22 25 27 28 30 31 33 36 38 38 38 37 37 38 26 27 26
81 62 25 9 8 6 8 19 11 13 8 19 24 13 9 12 13 19 8 6 7 9 19 23 25 22 21 19 14 9 8 8 7 6 10 11 15 19 21 23 26 29 32 33 34 36 38 41 38 36 37 33 23 26
52 12 8 8 7 8 16 12 11 13 9 11 12 10 11 11 18 11 6 11 13 25 28 30 29 27 22 16 11 7 5 7 7 6 10 10 13 17 20 21 23 24 29 29 33 36 38 42 43 39 36 35 33 25
11 7 10 6 8 10 11 13 12 10 9 11 15 8 9 14 9 11 7 17 29 33 33 32 28 25 21 17 13 7 7 6 7 5 8 10 12 14 17 19 21 24 31 31 36 38 39 41 43 44 41 37 32 31
6 9 12 12 10 9 11 13 11 11 10 12 9 14 12 8 9 8 6 24 32 40 40 38 33 27 21 18 16 11 6 6 6 5 6 8 12 15 18 20 21 23 32 30 34 36 38 40 40 43 43 41 36 30
7 6 9 6 9 14 10 9 11 7 12 11 11 10 9 9 11 6 6 13 26 33 34 31 29 25 23 21 16 12 9 7 7 5 5 7 8 15 17 19 22 26 28 28 32 34 38 41 41 41 41 40 36 34
5 7 12 16 12 7 5 9 11 13 9 11 19 12 14 2 5 6 5 14 27 35 34 29 25 24 24 21 17 13 9 7 8 6 5 7 6 12 19 18 20 24 26 26 31 30 35 41 40 41 41 42 39 38
6 10 16 13 9 8 10 7 6 6 4 13 14 6 7 7 8 10 16 29 37 37 35 33 31 29 26 21 17 12 9 7 4 3 2 3 8 13 21 22 23 23 24 25 31 35 34 37 38 40 40 38 37 40
10 16 5 13 9 6 6 4 10 11 11 12 15 16 14 13 14 17 25 30 29 28 27 27 28 25 23 19 15 10 8 8 7 5 4 7 13 18 20 22 23 23 25 26 28 28 33 31 29 30 35 37 40 43
19 10 6 6 5 6 13 17 19 17 11 14 17 19 21 17 16 21 21 22 25 26 27 27 25 21 19 15 12 9 5 4 5 7 8 9 13 17 21 23 23 22 24 26 27 28 31 30 29 34 36 39 42 43
10 9 6 5 8 17 24 7 8 8 7 8 9 12 18 12 9 9 16 20 23 23 23 23 22 19 16 14 11 12 12 7 2 5 10 12 15 19 20 20 19 19 21 23 23 25 28 30 30 32 35 38 41 43
6 10 6 5 10 9 8 10 7 8 9 7 8 10 11 8 8 7 23 25 20 22 23 22 20 19 17 15 12 8 6 1 9 13 18 21 22 20 16 17 16 16 17 17 19 22 25 28 30 31 33 35 38 41
Wind_Direction_850mb
255 257 256 253 261 265 264 254 240 265 275 284 291 302 324 323 337 331 305 317 307 275 283 250 244 250 254 251 293 10 257 192 272 290 307 258 295 303 294 304 232 236 228 223 224 247 265 19 330 295 304 301 303 301
263 258 254 252 256 263 261 256 241 245 266 259 284 295 312 324 329 329 317 301 304 268 259 275 259 249 245 248 298 285 339 307 353 319 3 321 313 317 337 293 169 279 249 296 299 294 313 312 299 306 302 300 303 304
268 262 253 251 248 253 259 263 247 241 255 250 274 281 286 306 309 314 295 285 296 292 291 259 253 254 279 239 222 261 142 346 349 353 344 308 275 175 287 296 313 335 0 247 314 266 303 304 305 308 311 308 309 308
270 264 255 248 243 249 250 262 248 247 246 250 265 272 277 283 299 303 274 273 239 280 280 174 241 291 244 240 244 239 249 295 290 292 249 284 268 252 292 300 297 344 331 293 267 296 313 294 311 317 319 315 313 317
274 264 256 252 241 245 251 257 252 245 243 242 252 269 276 282 298 299 284 251 230 266 310 283 283 237 211 234 240 234 238 245 273 274 246 240 253 284 276 297 295 2 347 309 287 294 289 292 320 329 320 328 320 316
274 267 258 255 243 244 249 251 254 253 235 236 246 264 277 264 291 291 268 240 227 220 274 276 285 228 221 262 244 231 222 219 224 242 265 281 287 198 274 269 45 349 334 322 282 292 296 326 327 330 330 326 323 320
279 270 259 249 245 245 249 247 249 251 234 237 246 259 277 255 249 215 248 193 207 193 243 282 240 182 251 219 197 178 189 208 222 245 242 253 272 208 288 326 340 335 327 318 327 315 332 335 341 336 336 329 328 321
282 278 257 246 247 240 249 249 247 248 232 236 248 258 278 249 262 257 242 227 213 221 230 272 271 213 33 271 241 191 188 207 218 238 221 231 163 203 223 351 332 330 330 326 329 326 333 335 336 339 339 338 333 332
279 275 254 244 248 245 244 248 243 248 221 238 251 263 248 205 223 205 176 187 215 208 270 233 273 352 329 275 273 224 201 207 193 218 151 303 128 48 321 326 330 332 325 307 323 335 334 335 338 341 342 340 339 333
271 269 250 237 242 244 237 239 237 208 222 226 247 203 201 193 164 143 150 172 206 217 225 248 259 289 317 327 258 263 201 240 226 156 127 179 93 3 347 338 337 333 333 331 336 333 338 340 341 343 343 341 341 342
262 258 242 229 234 235 224 221 193 209 216 218 192 188 172 154 145 185 211 216 187 220 210 228 248 305 6 299 344 347 288 219 262 92 218 108 80 355 344 340 352 351 347 342 339 334 339 340 342 342 344 346 349 349
256 249 229 215 226 227 211 201 197 206 196 177 134 131 149 153 195 221 209 182 216 228 174 198 194 226 159 276 252 216 286 300 313 271 191 116 19 349 346 343 353 356 352 348 350 344 344 347 348 348 350 348 355 357
246 233 215 203 219 212 189 186 194 204 188 128 140 161 192 180 216 218 193 198 198 179 174 186 177 166 164 196 260 270 257 8 288 260 76 64 352 350 346 342 347 360 357 359 354 358 356 353 356 354 352 351 6 4
240 221 200 198 211 188 178 187 186 194 143 167 174 189 219 186 227 206 218 147 121 145 160 189 151 179 138 210 315 258 67 244 251 173 85 26 349 343 343 340 344 349 360 358 351 351 355 358 356 359 3 360 2 13
220 199 183 198 196 179 185 180 191 180 142 184 198 213 215 237 217 169 134 128 133 144 157 154 151 198 122 185 251 263 219 196 322 99 358 336 336 339 342 342 342 343 353 356 355 351 356 355 360 4 5 7 5 12
185 172 197 189 177 178 175 183 174 158 164 217 226 248 226 203 156 163 156 137 149 153 157 197 151 163 150 180 240 166 246 221 134 344 324 327 334 339 340 340 340 340 344 356 352 354 353 356 355 3 6 12 9 8
181 172 185 174 172 175 181 165 150 148 197 223 231 228 236 204 174 164 167 147 163 193 203 169 191 160 128 145 194 213 191 126 341 313 325 330 331 336 339 339 342 343 347 353 358 358 353 354 356 3 11 10 10 12
178 178 170 169 172 172 159 143 133 175 221 226 226 204 193 185 164 153 148 154 172 192 191 158 130 194 197 180 166 158 160 172 282 330 331 334 336 336 341 340 342 345 345 352 3 7 5 6 3 2 3 5 7 12
176 172 173 176 172 139 128 160 163 208 211 197 211 183 170 151 132 146 142 143 148 156 144 175 207 189 144 126 121 148 151 144 349 339 323 334 345 344 341 346 346 347 348 349 359 9 14 9 4 1 360 5 6 9
172 174 172 171 163 116 113 141 181 197 188 188 179 174 165 153 144 138 134 143 151 156 176 206 65 108 128 132 141 137 122 60 10 356 345 342 349 350 349 350 351 349 350 348 355 4 11 19 17 14 19 8 3 8
158 164 170 167 133 110 150 147 170 185 162 179 162 160 142 150 155 161 158 158 183 204 161 163 133 125 126 126 123 120 92 73 42 28 357 352 359 358 359 2 2 1 1 358 358 357 2 360 3 7 11 3 360 4
149 167 158 147 90 103 165 168 162 152 164 155 160 165 159 173 168 170 159 187 191 169 169 159 151 144 137 133 123 114 97 70 72 34 23 13 5 6 9 8 5 9 9 4 2 357 354 354 355 1 1 9 5 2
156 152 130 114 129 130 148 144 158 168 162 167 164 156 157 165 162 155 191 178 169 171 156 155 152 147 145 144 131 106 82 85 97 64 35 18 10 8 10 10 8 6 8 6 3 358 355 358 357 357 357 10 17 2
139 116 125 138 139 144 156 171 170 150 130 175 183 164 157 143 157 199 188 177 166 159 159 158 156 152 153 153 146 130 96 92 110 69 37 27 15 8 9 7 8 7 3 3 2 2 359 358 2 359 357 352 5 15
125 147 139 161 177 152 161 150 172 179 171 172 175 147 153 160 184 192 203 172 173 172 170 167 167 170 168 162 156 139 97 102 125 111 44 32 21 14 11 12 10 5 3 6 0 360 1 359 1 357 357 356 355 2
118 167 181 171 160 177 158 157 160 175 178 171 174 134 159 164 179 211 179 180 179 177 176 174 172 171 169 169 159 149 117 99 112 101 50 37 29 18 7 4 3 356 0 1 353 355 357 358 357 357 356 356 357 351
136 171 175 171 151 141 101 118 148 170 189 182 155 158 169 186 209 110 121 149 167 169 166 164 166 166 164 157 149 134 117 86 100 125 78 53 42 22 12 1 355 347 358 356 355 354 351 352 353 353 352 354 355 350
94 150 154 153 127 132 151 176 170 180 181 151 156 180 181 206 93 83 113 147 153 150 151 152 155 156 153 149 141 126 106 84 61 104 68 33 12 10 2 355 346 353 4 349 357 355 353 354 352 352 352 350 349 350
118 129 135 142 119 182 205 199 169 90 73 187 178 121 105 79 80 93 127 138 145 147 144 143 143 146 141 136 130 116 95 87 103 97 47 348 332 326 350 351 349 349 349 349 346 350 353 352 355 355 354 349 346 345
143 159 139 170 178 182 119 64 106 99 77 106 112 109 94 91 75 115 134 141 146 149 151 151 150 150 150 148 142 119 88 74 71 73 30 356 346 339 345 347 346 346 346 346 346 346 344 357 349 349 351 351 349 350
150 157 149 144 152 105 129 126 112 109 98 75 89 116 124 124 112 104 127 146 148 145 146 147 149 152 152 154 158 156 139 86 41 7 360 356 344 340 341 343 344 344 343 345 346 347 347 351 350 348 350 350 349 348
150 171 141 143 117 141 129 94 86 80 82 109 102 117 124 108 104 133 126 141 151 150 151 150 152 150 151 150 144 155 160 136 84 359 335 335 332 332 337 338 342 343 344 346 347 345 344 346 348 349 349 349 349 348
106 145 142 99 138 146 122 96 82 87 78 82 84 87 79 89 98 143 157 147 152 153 148 146 142 137 135 134 132 136 129 266 320 328 335 334 335 339 343 338 346 348 350 352 351 348 349 349 350 352 354 355 354 353